SCP
-0 -0 1 1 1 1 1 1 1 1 0 1 0 0 0 0 0 0 0 0 0 0 0 0 0 0 0 0 0 0 0 0
-0 -0 0 1 1 1 1 1 1 1 1 0 0 0 0 0 0 0 0 0 0 0 0 0 0 0 0 -0 -0 -0 -0 -0
0 0 1 1 1 1 1 1 1 1 0 0 0 0 0 0 0 0 0 0 0 0 0 0 0 0 0 0 0 -0 -0 -0
0 -0 0 1 1 1 1 1 1 1 1 0 0 0 0 0 0 0 0 0 0 0 0 0 0 0 0 0 0 0 0 0
0 0 1 1 1 1 1 1 1 1 1 1 1 0 0 0 0 0 0 0 0 0 0 0 0 0 0 0 0 0 0 0
0 0 -0 1 1 1 1 1 1 1 1 1 1 1 0 0 0 0 0 0 0 0 0 0 0 0 0 0 0 0 0 0
0 -0 -0 1 1 1 1 1 1 1 1 1 1 1 1 0 0 0 0 0 0 0 0 0 1 1 1 1 1 0 1 0
0 0 0 1 0 0 1 2 1 1 1 1 1 1 1 1 0 0 0 0 0 0 0 1 1 1 2 1 1 0 0 -0
0 1 1 1 1 1 1 1 1 1 1 1 0 1 1 0 0 0 0 0 0 0 0 1 1 2 2 1 0 0 0 0
0 1 1 1 2 2 1 0 1 1 1 2 1 1 1 1 1 1 1 1 1 1 2 1 0 0 0 1 1 -0 -0 0
0 1 1 1 1 1 2 1 1 1 1 1 2 2 2 1 2 2 2 2 2 2 0 0 0 0 0 0 -0 0 0 0
1 1 2 1 1 2 0 0 1 1 1 1 2 2 2 2 1 1 1 0 0 0 0 0 0 0 0 -0 -0 -0 0 0
0 1 2 1 1 -0 0 1 1 1 2 2 3 1 0 0 0 0 0 0 0 0 0 0 0 0 0 -0 0 0 0 0
0 2 1 1 1 1 1 0 1 1 1 2 2 1 0 0 0 0 0 0 0 0 0 0 0 0 0 0 0 0 0 0
0 1 1 1 1 1 1 1 1 1 1 2 2 1 0 0 0 0 0 -0 0 0 0 0 -0 0 0 0 0 0 0 0
0 0 1 1 1 1 1 0 0 1 1 1 1 0 0 0 0 -0 -0 -0 0 0 0 0 0 0 0 0 0 0 0 0
0 0 1 1 1 1 1 1 1 1 0 1 1 0 0 0 0 0 0 0 0 0 0 0 0 0 0 0 0 0 0 0
0 0 1 1 1 1 1 0 0 0 0 1 0 0 0 0 0 0 0 0 0 0 0 0 0 0 0 0 0 0 0 0
0 0 1 1 1 1 0 0 0 0 0 0 0 0 0 0 0 0 0 0 0 0 0 0 0 0 0 0 0 0 0 0
0 1 2 2 1 0 0 0 0 0 0 0 0 0 0 0 0 0 0 0 0 0 0 0 0 0 0 0 0 0 0 0
Wind_Speed_500mb
28 41 55 73 73 75 77 75 74 71 68 64 61 58 52 47 39 36 35 37 37 34 30 27 24 23 21 19 17 16 17 18
27 39 50 59 67 75 78 76 75 72 69 66 63 59 55 48 42 38 37 36 36 35 31 25 22 19 18 20 17 14 10 12
29 35 46 51 68 81 79 78 76 74 69 67 64 60 53 45 41 37 35 34 33 32 29 25 20 17 12 12 12 12 13 15
25 34 46 60 67 80 82 80 77 75 72 67 62 56 48 43 38 34 33 32 29 29 28 25 26 19 13 11 10 14 16 21
34 41 52 65 77 82 83 78 78 76 72 65 59 52 46 41 38 36 31 29 28 26 26 27 26 18 15 13 14 18 26 32
47 45 56 60 75 86 86 81 78 75 70 62 57 49 44 42 40 32 29 26 27 27 23 26 25 21 17 15 17 21 32 39
51 49 58 60 75 90 90 82 79 74 67 59 52 47 46 41 34 32 30 29 29 30 28 24 24 26 20 10 15 27 38 42
40 52 57 56 73 86 81 79 77 73 68 59 52 50 46 42 39 34 32 30 30 32 33 32 31 26 16 15 5 20 49 53
32 53 53 49 67 76 77 76 75 73 65 59 56 53 51 43 36 32 30 30 32 33 37 38 35 23 26 17 20 37 53 47
29 50 52 63 70 69 58 69 69 67 63 62 61 52 42 35 34 30 29 28 32 30 34 41 42 26 11 13 18 44 51 46
34 52 58 45 60 48 41 65 67 61 63 62 53 44 36 26 27 27 28 28 28 35 38 37 22 20 18 5 31 31 46 36
30 48 58 63 74 64 77 76 64 62 55 52 48 37 28 26 33 31 25 23 24 31 31 10 12 16 12 14 29 37 33 30
36 40 58 79 91 99 79 71 65 53 55 49 43 33 21 16 19 22 24 24 20 13 11 18 16 14 12 30 31 32 26 24
36 33 43 64 77 76 72 68 59 54 53 42 37 28 16 18 18 17 24 19 7 13 9 15 10 15 24 29 25 23 26 29
41 41 43 51 57 65 66 60 57 53 50 44 39 26 18 19 41 42 42 26 10 19 20 25 19 23 23 21 20 24 27 31
45 41 41 45 51 53 54 56 55 49 48 45 35 23 24 33 28 27 31 32 11 19 15 11 16 18 18 21 19 27 29 31
59 53 49 45 53 57 53 50 48 43 41 40 37 30 25 16 37 21 22 31 25 24 22 15 13 13 17 18 23 27 31 34
58 57 54 52 55 54 51 48 45 38 38 40 37 32 38 37 50 21 25 27 29 23 17 14 19 15 17 21 26 29 28 24
59 53 49 50 52 51 53 48 39 39 40 38 35 39 48 44 40 26 26 28 26 25 20 18 14 15 20 22 21 17 17 20
46 47 50 56 58 59 57 47 46 46 44 41 41 57 48 40 35 33 29 32 28 21 16 10 12 17 17 15 15 18 21 22
Wind_Direction_500mb
216 206 205 199 194 192 192 195 193 193 195 194 197 198 199 200 201 202 201 199 197 197 196 195 192 195 198 202 206 213 222 233
242 216 204 196 195 196 195 197 198 197 198 200 202 201 202 203 204 203 204 204 203 202 201 199 196 204 210 213 213 217 236 248
259 225 209 201 199 199 201 201 201 201 202 204 205 205 206 208 210 209 208 209 207 206 204 204 201 190 189 185 202 234 254 266
256 220 209 213 203 202 203 204 203 204 204 208 209 209 209 210 213 215 213 211 208 209 207 206 195 193 203 217 234 260 275 282
255 234 216 221 214 204 206 204 204 205 207 208 212 211 212 212 214 214 213 211 206 209 212 203 198 204 207 238 267 292 299 299
264 237 218 223 213 208 208 206 207 208 210 210 212 214 215 214 216 215 213 210 207 205 201 200 200 205 218 250 284 299 308 306
258 222 215 220 213 210 207 207 209 210 210 212 211 212 216 218 220 219 217 215 212 208 204 201 204 206 218 274 307 314 316 309
247 208 211 218 214 210 208 208 210 211 209 209 208 211 216 218 222 223 226 226 223 219 212 210 216 236 217 240 291 324 310 307
238 201 208 207 209 210 211 211 212 212 208 208 209 212 216 220 226 233 238 239 237 232 228 227 236 239 219 229 307 277 303 300
211 189 189 203 203 205 211 216 213 213 209 212 213 215 218 226 229 234 239 239 235 234 230 233 239 226 224 294 254 276 294 300
197 181 189 195 193 179 188 225 217 210 214 212 215 215 218 215 223 236 235 237 244 247 241 237 236 173 110 286 265 286 284 292
202 185 180 177 185 180 210 216 213 212 215 211 216 215 211 219 238 235 238 242 251 240 216 183 109 52 61 232 279 281 284 293
206 189 183 177 183 191 208 211 211 207 211 210 208 206 213 245 228 235 243 229 196 210 52 64 332 170 224 242 270 276 289 303
210 201 186 186 193 201 205 206 204 202 205 199 200 206 202 179 138 101 80 60 216 157 168 159 47 274 261 246 273 285 304 315
209 187 178 181 185 193 199 200 197 197 197 193 192 181 182 165 114 87 72 72 105 153 151 149 175 230 251 266 277 296 319 319
206 205 197 179 173 184 188 191 190 187 184 183 186 180 181 141 149 111 94 115 157 200 217 228 225 219 255 272 295 321 315 313
204 201 197 188 187 186 185 185 186 186 184 186 188 188 194 204 153 148 144 148 174 199 216 190 214 267 293 304 319 317 316 312
199 198 195 188 191 185 182 186 188 178 178 180 179 180 177 172 174 162 151 155 174 207 230 252 272 283 293 315 316 312 316 334
192 189 184 185 186 179 185 189 180 174 174 175 180 180 179 176 178 156 165 177 193 198 221 243 261 293 309 312 320 339 11 12
168 160 156 168 179 183 186 175 176 175 173 173 168 166 170 175 170 173 182 183 187 202 216 245 289 303 314 350 30 38 30 11
Wind_Speed_850mb
28 41 55 73 73 75 77 75 74 71 68 64 61 58 52 47 39 36 35 37 37 34 30 27 24 23 21 19 17 16 17 18
27 39 50 59 67 75 78 76 75 72 69 66 63 59 55 48 42 38 37 36 36 35 31 25 22 19 18 20 17 14 10 12
29 35 46 51 68 81 79 78 76 74 69 67 64 60 53 45 41 37 35 34 33 32 29 25 20 17 12 12 12 12 13 15
25 34 46 60 67 80 82 80 77 75 72 67 62 56 48 43 38 34 33 32 29 29 28 25 26 19 13 11 10 14 16 21
34 41 52 65 77 82 83 78 78 76 72 65 59 52 46 41 38 36 31 29 28 26 26 27 26 18 15 13 14 18 26 32
47 45 56 60 75 86 86 81 78 75 70 62 57 49 44 42 40 32 29 26 27 27 23 26 25 21 17 15 17 21 32 39
51 49 58 60 75 90 90 82 79 74 67 59 52 47 46 41 34 32 30 29 29 30 28 24 24 26 20 10 15 27 38 42
40 52 57 56 73 86 81 79 77 73 68 59 52 50 46 42 39 34 32 30 30 32 33 32 31 26 16 15 5 20 49 53
32 53 53 49 67 76 77 76 75 73 65 59 56 53 51 43 36 32 30 30 32 33 37 38 35 23 26 17 20 37 53 47
29 50 52 63 70 69 58 69 69 67 63 62 61 52 42 35 34 30 29 28 32 30 34 41 42 26 11 13 18 44 51 46
34 52 58 45 60 48 41 65 67 61 63 62 53 44 36 26 27 27 28 28 28 35 38 37 22 20 18 5 31 31 46 36
30 48 58 63 74 64 77 76 64 62 55 52 48 37 28 26 33 31 25 23 24 31 31 10 12 16 12 14 29 37 33 30
36 40 58 79 91 99 79 71 65 53 55 49 43 33 21 16 19 22 24 24 20 13 11 18 16 14 12 30 31 32 26 24
36 33 43 64 77 76 72 68 59 54 53 42 37 28 16 18 18 17 24 19 7 13 9 15 10 15 24 29 25 23 26 29
41 41 43 51 57 65 66 60 57 53 50 44 39 26 18 19 41 42 42 26 10 19 20 25 19 23 23 21 20 24 27 31
45 41 41 45 51 53 54 56 55 49 48 45 35 23 24 33 28 27 31 32 11 19 15 11 16 18 18 21 19 27 29 31
59 53 49 45 53 57 53 50 48 43 41 40 37 30 25 16 37 21 22 31 25 24 22 15 13 13 17 18 23 27 31 34
58 57 54 52 55 54 51 48 45 38 38 40 37 32 38 37 50 21 25 27 29 23 17 14 19 15 17 21 26 29 28 24
59 53 49 50 52 51 53 48 39 39 40 38 35 39 48 44 40 26 26 28 26 25 20 18 14 15 20 22 21 17 17 20
46 47 50 56 58 59 57 47 46 46 44 41 41 57 48 40 35 33 29 32 28 21 16 10 12 17 17 15 15 18 21 22
Wind_Direction_850mb
216 206 205 199 194 192 192 195 193 193 195 194 197 198 199 200 201 202 201 199 197 197 196 195 192 195 198 202 206 213 222 233
242 216 204 196 195 196 195 197 198 197 198 200 202 201 202 203 204 203 204 204 203 202 201 199 196 204 210 213 213 217 236 248
259 225 209 201 199 199 201 201 201 201 202 204 205 205 206 208 210 209 208 209 207 206 204 204 201 190 189 185 202 234 254 266
256 220 209 213 203 202 203 204 203 204 204 208 209 209 209 210 213 215 213 211 208 209 207 206 195 193 203 217 234 260 275 282
255 234 216 221 214 204 206 204 204 205 207 208 212 211 212 212 214 214 213 211 206 209 212 203 198 204 207 238 267 292 299 299
264 237 218 223 213 208 208 206 207 208 210 210 212 214 215 214 216 215 213 210 207 205 201 200 200 205 218 250 284 299 308 306
258 222 215 220 213 210 207 207 209 210 210 212 211 212 216 218 220 219 217 215 212 208 204 201 204 206 218 274 307 314 316 309
247 208 211 218 214 210 208 208 210 211 209 209 208 211 216 218 222 223 226 226 223 219 212 210 216 236 217 240 291 324 310 307
238 201 208 207 209 210 211 211 212 212 208 208 209 212 216 220 226 233 238 239 237 232 228 227 236 239 219 229 307 277 303 300
211 189 189 203 203 205 211 216 213 213 209 212 213 215 218 226 229 234 239 239 235 234 230 233 239 226 224 294 254 276 294 300
197 181 189 195 193 179 188 225 217 210 214 212 215 215 218 215 223 236 235 237 244 247 241 237 236 173 110 286 265 286 284 292
202 185 180 177 185 180 210 216 213 212 215 211 216 215 211 219 238 235 238 242 251 240 216 183 109 52 61 232 279 281 284 293
206 189 183 177 183 191 208 211 211 207 211 210 208 206 213 245 228 235 243 229 196 210 52 64 332 170 224 242 270 276 289 303
210 201 186 186 193 201 205 206 204 202 205 199 200 206 202 179 138 101 80 60 216 157 168 159 47 274 261 246 273 285 304 315
209 187 178 181 185 193 199 200 197 197 197 193 192 181 182 165 114 87 72 72 105 153 151 149 175 230 251 266 277 296 319 319
206 205 197 179 173 184 188 191 190 187 184 183 186 180 181 141 149 111 94 115 157 200 217 228 225 219 255 272 295 321 315 313
204 201 197 188 187 186 185 185 186 186 184 186 188 188 194 204 153 148 144 148 174 199 216 190 214 267 293 304 319 317 316 312
199 198 195 188 191 185 182 186 188 178 178 180 179 180 177 172 174 162 151 155 174 207 230 252 272 283 293 315 316 312 316 334
192 189 184 185 186 179 185 189 180 174 174 175 180 180 179 176 178 156 165 177 193 198 221 243 261 293 309 312 320 339 11 12
168 160 156 168 179 183 186 175 176 175 173 173 168 166 170 175 170 173 182 183 187 202 216 245 289 303 314 350 30 38 30 11